Date String (YYYY-MM-DD hh:mm:ss) UTC,Instrument flags,Ambient pressure (hPa),Sample flow (lpm),Bypass flow (lpm),Sample temperature (°C),Ambient temperature (°C),ASC tube jacket temperature (°C),LED temperature (°C),Box temperature (°C),Sample RH (%),Span deviation,Mass concentration (μg/m³),Mass concentration (μg/m³),Mass concentration (μg/m³)
DateTimeUTC,F1_M11,P_M11,Q1_M11,Q2_M11,T1_M11,T2_M11,T3_M11,T4_M11,T5_M11,U1_M11,ZSPAN_M11,X0_M11,X2_M11,X1_M11
2022-02-20 09:00:00,,0818.4,5.01,0.00,22.4,21.8,00.0,31.4,24.2,06.1,0000.0,0000.88,0000.57,0000.40
2022-02-20 09:01:00,,0818.4,5.00,0.00,22.4,21.7,00.0,31.4,24.2,05.8,0000.0,0000.78,0000.54,0000.40
2022-02-20 09:02:00,,0818.5,4.99,0.00,22.4,21.6,00.0,31.4,24.1,06.0,0000.0,0000.79,0000.56,0000.40
2022-02-20 09:03:00,,0818.5,5.01,0.00,22.4,21.5,00.0,31.4,24.1,05.8,0000.0,0000.84,0000.57,0000.40
2022-02-20 09:04:00,,0818.6,4.98,0.00,22.3,21.5,00.0,31.4,24.0,06.0,0000.0,0000.97,0000.59,0000.41
2022-02-20 09:05:00,,0818.4,5.00,0.00,22.3,21.4,00.0,31.4,24.0,06.3,0000.0,0001.14,0000.65,0000.43
2022-02-20 09:06:00,,0818.4,4.99,0.00,22.3,21.4,00.0,31.4,24.0,06.4,0000.0,0001.26,0000.68,0000.44
2022-02-20 09:07:00,,0818.4,5.01,0.00,22.3,21.3,00.0,31.3,23.9,06.6,0000.0,0001.39,0000.72,0000.45
2022-02-20 09:08:00,,0818.4,4.99,0.00,22.2,21.3,00.0,31.3,23.9,06.6,0000.0,0001.40,0000.73,0000.45
2022-02-20 09:09:00,,0818.5,5.02,0.00,22.2,21.2,00.0,31.3,23.9,06.2,0000.0,0001.41,0000.73,0000.45
2022-02-20 09:10:00,,0818.4,5.00,0.00,22.2,21.2,00.0,31.3,23.9,06.3,0000.0,0001.44,0000.70,0000.46
2022-02-20 09:11:00,,0818.6,4.98,0.00,22.2,21.1,00.0,31.3,23.9,06.0,0000.0,0001.46,0000.70,0000.46
2022-02-20 09:12:00,,0818.8,5.01,0.00,22.2,21.1,00.0,31.3,23.9,05.9,0000.0,0001.47,0000.70,0000.46
2022-02-20 09:13:00,,0818.8,4.99,0.00,22.1,21.1,00.0,31.2,23.8,06.3,0000.0,0001.54,0000.70,0000.47
2022-02-20 09:14:00,,0818.7,5.00,0.00,22.1,21.1,00.0,31.2,23.8,06.2,0000.0,0001.97,0000.68,0000.47
2022-02-20 09:15:00,,0818.7,5.01,0.00,22.1,21.1,00.0,31.2,23.8,06.4,0000.0,0002.75,0000.67,0000.47
2022-02-20 09:16:00,,0818.6,5.01,0.00,22.1,21.5,00.0,31.2,23.9,06.2,0000.0,0002.64,0000.64,0000.46
2022-02-20 09:17:00,,0818.8,4.99,0.00,22.3,22.4,00.0,31.3,24.1,06.0,0000.0,0002.50,0000.61,0000.45
2022-02-20 09:18:00,,0818.8,5.01,0.00,22.4,23.1,00.0,31.3,24.4,05.9,0000.0,0002.39,0000.57,0000.44
2022-02-20 09:19:00,,0818.8,4.99,0.00,22.5,23.0,00.0,31.3,24.5,05.9,0000.0,0002.37,0000.56,0000.44
2022-02-20 09:20:00,,0818.6,5.00,0.00,22.5,22.8,00.0,31.4,24.3,06.1,0000.0,0002.36,0000.56,0000.43
2022-02-20 09:21:00,,0818.4,4.99,0.00,22.4,22.5,00.0,31.4,24.2,06.1,0000.0,0002.23,0000.54,0000.43
2022-02-20 09:22:00,,0818.3,5.00,0.00,22.4,22.3,00.0,31.4,24.2,06.2,0000.0,0002.24,0000.56,0000.44
2022-02-20 09:23:00,,0818.2,5.00,0.00,22.4,22.1,00.0,31.4,24.2,06.1,0000.0,0002.24,0000.57,0000.45
2022-02-20 09:24:00,,0818.2,5.00,0.00,22.4,21.9,00.0,31.4,24.1,06.0,0000.0,0002.19,0000.57,0000.45
2022-02-20 09:25:00,,0818.2,5.00,0.00,22.4,21.8,00.0,31.4,24.1,05.9,0000.0,0003.30,0000.58,0000.46
2022-02-20 09:26:00,,0818.4,5.00,0.00,22.4,21.7,00.0,31.4,24.1,06.1,0000.0,0002.60,0000.57,0000.46
2022-02-20 09:27:00,,0818.6,5.01,0.00,22.4,21.6,00.0,31.4,24.1,05.8,0000.0,0002.54,0000.54,0000.45
2022-02-20 09:28:00,,0818.4,4.99,0.00,22.3,21.5,00.0,31.3,24.1,05.9,0000.0,0002.55,0000.54,0000.45
2022-02-20 09:29:00,,0818.4,4.99,0.00,22.3,21.5,00.0,31.3,24.0,06.0,0000.0,0002.60,0000.56,0000.45
2022-02-20 09:30:00,,0818.5,5.00,0.00,22.3,21.4,00.0,31.3,24.0,05.9,0000.0,0002.64,0000.58,0000.46
2022-02-20 09:31:00,,0818.5,4.99,0.00,22.2,21.3,00.0,31.3,23.9,06.0,0000.0,0002.77,0000.63,0000.46
2022-02-20 09:32:00,,0818.4,5.00,0.00,22.2,21.3,00.0,31.3,23.9,06.1,0000.0,0002.83,0000.65,0000.46
2022-02-20 09:33:00,,0818.5,5.01,0.00,22.2,21.3,00.0,31.3,23.9,05.8,0000.0,0002.87,0000.65,0000.46
2022-02-20 09:34:00,,0818.5,4.99,0.00,22.2,21.3,00.0,31.3,23.8,06.0,0000.0,0002.95,0000.67,0000.46
2022-02-20 09:35:00,,0818.5,5.01,0.00,22.1,21.3,00.0,31.3,23.8,05.7,0000.0,0002.93,0000.66,0000.46
2022-02-20 09:36:00,,0818.5,4.99,0.00,22.1,21.2,00.0,31.2,23.8,05.7,0000.0,0001.56,0000.67,0000.45
2022-02-20 09:37:00,,0818.5,5.01,0.00,22.1,21.2,00.0,31.2,23.8,05.7,0000.0,0001.33,0000.70,0000.45
2022-02-20 09:38:00,,0818.5,4.99,0.00,22.1,21.2,00.0,31.2,23.8,05.8,0000.0,0001.50,0000.69,0000.45
2022-02-20 09:39:00,,0818.6,5.00,0.00,22.1,21.1,00.0,31.2,23.8,05.8,0000.0,0001.53,0000.70,0000.46
2022-02-20 09:40:00,,0818.5,5.00,0.00,22.1,21.2,00.0,31.2,23.8,06.1,0000.0,0001.51,0000.69,0000.46
2022-02-20 09:41:00,,0818.7,5.01,0.00,22.0,21.1,00.0,31.2,23.8,06.1,0000.0,0001.47,0000.68,0000.46
2022-02-20 09:42:00,,0818.7,4.99,0.00,22.0,21.1,00.0,31.1,23.7,06.3,0000.0,0001.35,0000.64,0000.45
2022-02-20 09:43:00,,0818.8,5.00,0.00,22.1,21.8,00.0,31.2,23.8,06.1,0000.0,0001.33,0000.63,0000.46
2022-02-20 09:44:00,,0818.7,5.01,0.00,22.2,22.7,00.0,31.2,24.1,06.2,0000.0,0001.29,0000.64,0000.46
2022-02-20 09:45:00,,0818.7,4.99,0.00,22.4,23.2,00.0,31.3,24.4,06.2,0000.0,0001.26,0000.63,0000.46
2022-02-20 09:46:00,,0818.7,5.01,0.00,22.4,23.0,00.0,31.3,24.4,06.2,0000.0,0001.31,0000.64,0000.46
2022-02-20 09:47:00,,0818.6,5.01,0.00,22.4,22.7,00.0,31.3,24.3,06.2,0000.0,0001.30,0000.64,0000.47
2022-02-20 09:48:00,,0818.6,4.99,0.00,22.4,22.5,00.0,31.3,24.2,06.1,0000.0,0001.08,0000.60,0000.47
2022-02-20 09:49:00,,0818.8,4.99,0.00,22.4,22.3,00.0,31.3,24.2,05.8,0000.0,0000.95,0000.61,0000.47
2022-02-20 09:50:00,,0818.7,4.99,0.00,22.4,22.1,00.0,31.3,24.1,05.9,0000.0,0000.93,0000.61,0000.47
2022-02-20 09:51:00,,0818.7,5.00,0.00,22.3,22.0,00.0,31.3,24.1,06.1,0000.0,0001.09,0000.62,0000.48
2022-02-20 09:52:00,,0818.6,5.01,0.00,22.3,21.8,00.0,31.3,24.1,06.2,0000.0,0001.17,0000.62,0000.48
2022-02-20 09:53:00,,0818.6,5.00,0.00,22.3,21.7,00.0,31.3,24.0,06.0,0000.0,0001.21,0000.63,0000.48
2022-02-20 09:54:00,,0818.5,4.99,0.00,22.3,21.6,00.0,31.3,24.0,06.2,0000.0,0001.18,0000.62,0000.48
2022-02-20 09:55:00,,0818.4,5.00,0.00,22.3,21.5,00.0,31.3,24.0,06.3,0000.0,0001.13,0000.60,0000.48
2022-02-20 09:56:00,,0818.5,4.99,0.00,22.3,21.5,00.0,31.3,24.0,06.2,0000.0,0001.06,0000.58,0000.48
2022-02-20 09:57:00,,0818.6,5.01,0.00,22.3,21.4,00.0,31.3,23.9,05.6,0000.0,0001.13,0000.58,0000.48
2022-02-20 09:58:00,,0818.5,5.00,0.00,22.2,21.4,00.0,31.3,23.9,06.1,0000.0,0001.17,0000.60,0000.47
2022-02-20 09:59:00,,0818.6,4.99,0.00,22.2,21.4,00.0,31.3,23.9,06.2,0000.0,0001.20,0000.61,0000.47
